FW9017 Weather Reports


time (UTC)temp
C
wind
direction
speed
KPH
gust
KPH
rain 1hr
cm
rain 24hr
cm
rain mn
cm
humidity
%
barometer
mb
20260504174559 21 177 3.2 14.5 0.00 0.00 0.00 36 1009.7
20260504173056 21 302 6.4 17.7 0.00 0.00 0.00 34 1009.7
20260504171556 21 188 3.2 11.3 0.00 0.00 0.00 36 1009.9
20260504120130 11 0 0.0 3.2 0.00 0.00 0.00 60 1013.0
20260504081602 3 0 0.0 1.6 0.00 0.00 0.00 86 1012.1
20260504044557 3 0 0.0 1.6 0.00 0.00 0.00 83 1012.3
20260504043113 3 0 0.0 0.0 0.00 0.00 0.00 81 1012.4
20260504041557 3 0 0.0 0.0 0.00 0.00 0.00 80 1012.2
20260504040059 3 0 0.0 0.0 0.00 0.00 0.00 79 1012.1
20260504034555 4 0 0.0 0.0 0.00 0.00 0.00 81 1012.0
20260504033109 4 0 0.0 1.6 0.00 0.00 0.00 80 1011.9
20260504031559 5 0 0.0 1.6 0.00 0.00 0.00 80 1011.9
20260504030114 5 0 0.0 1.6 0.00 0.00 0.00 78 1011.9
20260504024557 5 0 0.0 0.0 0.00 0.00 0.00 74 1011.9
20260504023055 6 0 0.0 0.0 0.00 0.00 0.00 74 1011.9
20260504021556 6 0 0.0 1.6 0.00 0.00 0.00 70 1011.8
20260504020104 6 0 0.0 0.0 0.00 0.00 0.00 67 1011.7
20260504014603 7 290 0.0 1.6 0.00 0.00 0.00 64 1011.4
20260504013057 7 0 0.0 0.0 0.00 0.00 0.00 62 1011.3
20260504011556 8 0 0.0 0.0 0.00 0.00 0.00 57 1011.1
20260504010100 8 0 0.0 0.0 0.00 0.00 0.00 55 1010.9
20260504004555 8 0 0.0 0.0 0.00 0.00 0.00 53 1010.6
20260504003101 9 0 0.0 0.0 0.00 0.00 0.00 54 1010.3
20260504001601 10 0 0.0 1.6 0.00 0.00 0.00 44 1010.0
20260504000100 11 0 0.0 3.2 0.00 0.00 0.00 42 1009.9
20260503234555 11 0 0.0 4.8 0.00 0.00 0.00 38 1009.7
20260503233055 12 0 1.6 4.8 0.00 0.00 0.00 37 1009.7
20260503231553 12 0 0.0 11.3 0.00 0.00 0.00 36 1009.5
20260503230111 12 286 1.6 12.9 0.00 0.00 0.00 36 1009.6
20260503224557 12 341 3.2 14.5 0.00 0.00 0.00 36 1009.5
20260503223112 12 255 6.4 16.1 0.00 0.00 0.00 36 1009.4
20260503221558 13 267 3.2 19.3 0.00 0.00 0.00 36 1009.4
20260503220056 13 351 4.8 20.9 0.00 0.00 0.00 34 1009.4
20260503214600 13 234 4.8 14.5 0.00 0.00 0.00 35 1009.4
20260503213056 13 243 6.4 16.1 0.00 0.00 0.00 35 1009.4
20260503211556 12 344 6.4 20.9 0.00 0.00 0.00 37 1009.4
20260503210057 13 329 6.4 20.9 0.00 0.00 0.00 35 1009.5
20260503204557 12 355 11.3 25.7 0.00 0.00 0.00 36 1009.3
20260503203057 13 291 4.8 19.3 0.00 0.00 0.00 37 1009.3
20260503201557 12 324 9.7 20.9 0.00 0.00 0.00 36 1009.3
20260503200101 12 297 8.0 25.7 0.00 0.00 0.00 38 1009.2
20260503194621 13 350 8.0 25.7 0.00 0.00 0.00 37 1009.3
20260503193058 12 319 6.4 20.9 0.00 0.00 0.00 38 1009.3
20260503191608 12 277 9.7 20.9 0.00 0.00 0.00 40 1009.4
20260503190057 11 340 8.0 29.0 0.00 0.00 0.00 43 1009.1
20260503184553 12 5 12.9 29.0 0.00 0.00 0.00 38 1009.3
20260503183103 12 243 4.8 22.5 0.00 0.00 0.00 36 1009.4
20260503181606 13 307 8.0 29.0 0.00 0.00 0.00 37 1009.2
20260503180058 12 324 9.7 20.9 0.00 0.00 0.00 38 1009.1